Regional Weather Roundup
Issued by NWS Jackson, KY

Home | Current Version | Previous Version | Graphics & Text | Print | Product List | Glossary On
Versions: 1 2 3 4 5 6 7 8 9 10 11 12 13 14 15 16 17 18 19 20 21 22 23 24 25 26 27 28 29 30 31 32 33 34 35 36 37 38 39 40 41 42 43 44 45 46 47 48 49 50
000
ASUS43 KJKL 311710
RWRJKL

EAST KENTUCKY HOURLY WEATHER ROUNDUP
NATIONAL WEATHER SERVICE JACKSON KY
1200 PM EST SAT JAN 31 2015

NOTE: "FAIR" INDICATES FEW OR NO CLOUDS BELOW 12,000 FEET WITH
NO SIGNIFICANT WEATHER AND/OR OBSTRUCTIONS TO VISIBILITY.

* THESE REPORTS ARE NOT UNDER NWS QUALITY CONTROL AND MAY NOT
  REPORT WEATHER SUCH AS PRECIPITATION AND FOG.

KYZ079-080-083-085-087-088-110-112-115-119-120-311800
...EASTERN KENTUCKY...

CITY           SKY/WX    TMP DP  RH WIND       PRES   REMARKS
JACKSON        SUNNY     34  18  52 CALM      30.37F
LONDON         MOSUNNY   37  15  40 SE3       30.38F
SOMERSET*      MOSUNNY   34  21  60 CALM      30.41F
MONTICELLO*    PTSUNNY   41  16  36 CALM      30.41F
MIDDLESBORO*   PTSUNNY   33  19  55 CALM      30.40F
HARLAN APT*    SUNNY     36  16  44 CALM      30.37F
HAZARD APT*    SUNNY     37  18  44 E3        30.37
BLACK MTN*       N/A     28   1  31 VRB3        N/A
PIKEVILLE APT* SUNNY     32  16  51 S5        30.37F WCI  27
BIG SANDY*     SUNNY     33  17  53 S3        30.39F
MOREHEAD APT*  SUNNY     34  18  51 SE3       30.40F
$$

KYZ035-036-041-042-044-050-067-078-099-311800
...CENTRAL KENTUCKY...

CITY           SKY/WX    TMP DP  RH WIND       PRES   REMARKS
MT STERLING*   MOSUNNY   34  21  60 SW5       30.39F WCI  30
FLEMING/MASON* SUNNY     33  19  56 S9        30.38F WCI  25
DANVILLE*      SUNNY     36  21  55 S6        30.39F WCI  31
RICHMOND*      SUNNY     36  18  48 SW3       30.38F
LEXINGTON      MOSUNNY   35  20  54 S6        30.38F WCI  30
FRANKFORT      MOSUNNY   36  18  48 SW9       30.37F WCI  29
$$

KYZ091>093-OHZ055-061-077-WVZ005-015-034-035-042-311800
...SOUTHERN OHIO/WEST VIRGINIA...

CITY           SKY/WX    TMP DP  RH WIND       PRES   REMARKS
COVINGTON      PTSUNNY   34  19  54 SW7       30.36F WCI  28
COLUMBUS       MOSUNNY   26  16  65 S9        30.35F WCI  17
DAYTON         MOSUNNY   33  20  58 SW12      30.32F WCI  24
WILMINGTON     SUNNY     32  20  61 SW12      30.33F WCI  23
HUNTINGTON     SUNNY     31  17  56 SW8       30.39F WCI  23
CHARLESTON     MOSUNNY   30  16  56 SW5       30.38F WCI  25
PINEVILLE*     SUNNY     32  19  58 MISG      30.39F
BECKLEY        SUNNY     25  11  55 W7        30.29F WCI  17
BLUEFIELD      SUNNY     29   9  43 VRB6      30.28F WCI  23
$$

VAZ002-007-008-TNZ017-027-036-066-071-311800
...SOUTHWEST VIRGINIA/EAST TENNESSEE...

CITY           SKY/WX    TMP DP  RH WIND       PRES   REMARKS
WISE*          SUNNY     36   9  32 CALM      30.31F
JONESVILLE*    SUNNY     36  16  44 W3        30.40F
ABINGDON*      SUNNY     35  11  37 W6        30.34F WCI  30
BRISTOL        PTSUNNY   36  13  38 CALM      30.37F
KNOXVILLE      CLOUDY    38  20  48 NE8       30.40S WCI  32
OAK RIDGE      PTSUNNY   37  19  48 NE5       30.41F WCI  33
CROSSVILLE     MOSUNNY   39  15  37 NE5       30.34F
NASHVILLE      PTSUNNY   42  22  44 SE3       30.41F
$$

...KEY TO REMARKS...
VSB - VISIBILITY IN MILES
WCI - WIND CHILL INDEX
HX  - HEAT INDEX

$$


USA.gov is the U.S. government's official web portal to all federal, state and local government web resources and services.